Regional Weather Roundup
Issued by NWS Boston, MA

Current Version | Previous Version | Text Only | Print | Product List | Glossary Off
Versions: 1 2 3 4 5 6 7 8 9 10 11 12 13 14 15 16 17 18 19 20 21 22 23 24 25 26 27 28
000 ASUS41 KBOX 200410 RWRBOX REGIONAL WEATHER ROUNDUP NATIONAL WEATHER SERVICE TAUNTON MA 1200 AM EDT FRI OCT 20 2017 NOTE: "FAIR" INDICATES FEW OR NO CLOUDS BELOW 12,000 FEET WITH NO SIGNIFICANT WEATHER AND/OR OBSTRUCTIONS TO VISIBILITY. MAZALL-200500- EASTERN MASSACHUSETTS CITY SKY/WX TMP DP RH WIND PRES REMARKS BOSTON FAIR 59 51 75 SW15 29.99F BEVERLY FAIR 59 48 67 SW10 29.98F LAWRENCE FAIR 61 47 59 SW9 29.99F BEDFORD FAIR 58 46 64 SW10 29.98S BLUE HILL N/A 56 49 77 SW16 30.00S NORWOOD FAIR 59 52 77 SW7 30.00F MARSHFIELD FAIR 61 55 82 SW9G17 30.00S PLYMOUTH FAIR 59 54 83 SW8 30.03S TAUNTON FAIR 60 53 77 SW6 30.02F NEW BEDFORD FAIR 60 55 83 SW12 30.03S $$ MAZALL-200500- CAPE COD AND THE ISLANDS CITY SKY/WX TMP DP RH WIND PRES REMARKS FALMOUTH FAIR 61 57 88 SW17G24 30.04F HYANNIS FAIR 61 57 87 SW16 30.03F CHATHAM FAIR 61 57 87 SW9G22 30.05F PROVINCETOWN FAIR 59 56 89 SW17 30.02S NANTUCKET FAIR 60 58 92 SW20 30.06F MARTHAS VNYRD FAIR 60 57 89 SW12 30.06F $$ MAZALL-200500- CENTRAL AND WESTERN MASSACHUSETTS CITY SKY/WX TMP DP RH WIND PRES REMARKS WORCESTER FAIR 56 45 66 SW13 30.01F FITCHBURG FAIR 64 46 52 W12G17 29.98S ORANGE FAIR 48 45 89 SW5 30.01R SPRINGFIELD FAIR 54 49 81 S5 30.00S WESTFIELD FAIR 55 47 74 S5 30.01S NORTH ADAMS MOCLDY 62 43 49 W9 30.01R PITTSFIELD FAIR 54 41 61 SW9 30.02R $$ RIZALL-200500- RHODE ISLAND CITY SKY/WX TMP DP RH WIND PRES REMARKS PROVIDENCE FAIR 58 55 90 SW8 30.04F NEWPORT FAIR 60 57 89 VRB6 30.04F BLOCK ISLAND FAIR 62 59 90 SW15 30.06F SMITHFIELD FAIR 56 52 86 VRB5 30.02F WESTERLY FAIR 64 55 72 SW9 30.05F $$ CTZALL-200500- CONNECTICUT CITY SKY/WX TMP DP RH WIND PRES REMARKS BRADLEY INTL MOCLDY 57 49 74 S9 30.02F HARTFORD FAIR 57 52 83 S7 30.03S BRIDGEPORT FAIR 63 49 60 W9 30.05F DANBURY FAIR 54 45 71 W6 30.07S GROTON FAIR 64 55 72 W10 30.04F NEW HAVEN FAIR 63 52 67 VRB6 30.06S CHESTER FAIR 59 54 82 SW6 30.05F MERIDEN FAIR 52 51 97 S6 30.05F WILLIMANTIC FAIR 51 49 92 CALM 30.04F OXFORD FAIR 54 46 74 SW5 30.06F $$ MEZ002-015-021-024-NHZ003-005-008-011-012-014-VTZ005-008-200500- NORTHERN NEW ENGLAND CITY SKY/WX TMP DP RH WIND PRES REMARKS PORTLAND ME FAIR 59 42 53 S7 29.91F BANGOR ME MOCLDY 61 44 53 SW7 29.85F CONCORD NH FAIR 57 44 62 SW5 29.94F MANCHESTER NH CLOUDY 58 45 62 S7 29.95S NASHUA NH FAIR 55 47 74 CALM 29.98R PORTSMOUTH NH MOCLDY 59 45 58 SW10 29.93F JAFFREY NH FAIR 54 47 77 CALM 30.00S KEENE NH FAIR 50 44 80 S3 29.99S BURLINGTON VT FAIR 64 46 52 W9G20 29.96R MT. WASHINGTON PTCLDY 37 34 87 W66G78 N/A WCI 20 $$ NYZ052-076-200500- EASTERN NEW YORK CITY SKY/WX TMP DP RH WIND PRES REMARKS ALBANY MOCLDY 58 45 62 W6 30.03S NEW YORK CITY MOCLDY 64 46 52 S9 30.07F $$ ANZALL-200500- MARINE OBSERVATIONS STATION/POSITION TIME TEMP WIND PRES VSBY WAVE AIR SEA DIR/SP/G HT/PER (UTC) (F) (DEG/KT/KT) (MB) (MI) (FT/S) BOSTON BUOY 0350 59 58 230/ 17/ 19 1014.5F 3/ 4 BUZZARDS BAY 0300 62 230/ 27/ 29 1017.5F NANTUCKET SOUND 0350 62 62 240/ 21/ 25 1017.0F 3/ 4 MASS BAY-STELLWA 0304 60 59 220/ 14/ 17 1014.8F 3/ 5 ISLE OF SHOALS 0300 60 220/ 20/ 22 1014.0F S OF BLOCK IS NOT AVBL $$ ......................KEY......................... SKY/WX - SKY CONDITION/PRESENT WEATHER TMP - TEMPERATURE IN FAHRENHEIT DWPT - DEWPOINT IN FAHRENHEIT RH - RELATIVE HUMIDITY IN PERCENT WIND - DIRECTION AND SPEED IN MPH PRES - MEAN SEA LEVEL PRESSURE IN INCHES OF HG WCI - WIND CHILL INDEX VSB - VISIBILITY IN MILES HX - HEAT INDEX TC - TEMPERATURE IN CELSIUS VRB - VARIABLE WIND DIRECTION N/A - NOT AVAILABLE

USA.gov is the U.S. government's official web portal to all federal, state and local government web resources and services.